N9GKE-1 Weather Reports


time (UTC)temp
C
wind
direction
speed
KPH
gust
KPH
rain 1hr
cm
rain 24hr
cm
rain mn
cm
humidity
%
barometer
mb
20260905224345 30 45 1.6 22.5 0.00 0.00 0.00 71 1011.1
20260905224244 30 92 3.2 22.5 0.00 0.00 0.00 71 1011.1
20260905223345 30 35 4.8 22.5 0.00 0.00 0.00 70 1011.0
20260905223244 30 33 8.0 22.5 0.00 0.00 0.00 70 1010.9
20260905222344 30 357 1.6 22.5 0.00 0.00 0.00 71 1010.8
20260905222245 30 346 3.2 22.5 0.00 0.00 0.00 71 1010.8
20260905221344 30 24 3.2 22.5 0.00 0.00 0.00 71 1010.6
20260905221244 30 0 4.8 22.5 0.00 0.00 0.00 71 1010.7
20260905220345 30 37 4.8 22.5 0.00 0.00 0.00 71 1010.7
20260905220244 31 39 4.8 22.5 0.00 0.00 0.00 71 1010.5
20260905215344 31 61 4.8 22.5 0.00 0.00 0.00 71 1010.6
20260905215244 31 30 3.2 22.5 0.00 0.00 0.00 72 1010.6
20260905214345 31 2 8.0 22.5 0.00 0.00 0.00 71 1010.6
20260905214244 31 28 4.8 22.5 0.00 0.00 0.00 71 1010.5
20260905213343 31 321 3.2 22.5 0.00 0.00 0.00 71 1010.3
20260905212345 31 17 3.2 22.5 0.00 0.00 0.00 71 1010.2
20260905212244 31 69 1.6 22.5 0.00 0.00 0.00 70 1010.2
20260905211346 32 30 3.2 22.5 0.00 0.00 0.00 71 1010.1
20260905211245 32 345 3.2 22.5 0.00 0.00 0.00 72 1010.1
20260905210344 32 18 1.6 22.5 0.00 0.00 0.00 72 1010.1
20260905210245 32 293 1.6 22.5 0.00 0.00 0.00 71 1010.1
20260905205345 32 343 3.2 22.5 0.00 0.00 0.00 72 1010.1
20260905205244 32 13 4.8 22.5 0.00 0.00 0.00 71 1010.2
20260905204343 32 32 1.6 22.5 0.00 0.00 0.00 71 1010.3
20260905204244 32 338 3.2 22.5 0.00 0.00 0.00 71 1010.3
20260905203343 32 316 1.6 22.5 0.00 0.00 0.00 69 1010.2
20260905203244 32 295 3.2 22.5 0.00 0.00 0.00 69 1010.2
20260905202344 32 343 1.6 22.5 0.00 0.00 0.00 68 1010.2
20260905202243 32 327 3.2 22.5 0.00 0.00 0.00 67 1010.2
20260905201344 32 318 3.2 22.5 0.00 0.00 0.00 68 1010.2
20260905201245 32 1 4.8 22.5 0.00 0.00 0.00 68 1010.3
20260905200344 32 54 3.2 22.5 0.00 0.00 0.00 70 1010.3
20260905200243 32 356 3.2 22.5 0.00 0.00 0.00 72 1010.3
20260905195345 31 34 1.6 22.5 0.00 0.00 0.00 72 1010.3
20260905195244 31 34 1.6 22.5 0.00 0.00 0.00 71 1010.3
20260905194345 31 15 1.6 22.5 0.00 0.00 0.00 70 1010.5
20260905194245 31 352 3.2 22.5 0.00 0.00 0.00 70 1010.5
20260905193345 32 53 8.0 22.5 0.00 0.00 0.00 68 1010.9
20260905193244 32 53 4.8 22.5 0.00 0.00 0.00 68 1010.9
20260905192343 32 302 3.2 22.5 0.00 0.00 0.00 70 1011.1
20260905192244 32 3 1.6 22.5 0.00 0.00 0.00 70 1011.1
20260905191345 32 333 1.6 22.5 0.00 0.00 0.00 67 1011.1
20260905191245 32 344 1.6 22.5 0.00 0.00 0.00 67 1011.1
20260905190344 33 276 3.2 22.5 0.00 0.00 0.00 66 1010.8
20260905190245 33 310 4.8 22.5 0.00 0.00 0.00 66 1010.9
20260905185344 33 353 4.8 22.5 0.00 0.00 0.00 64 1011.1
20260905185244 33 318 8.0 22.5 0.00 0.00 0.00 64 1011.2
20260905184345 33 46 1.6 22.5 0.00 0.00 0.00 68 1011.1
20260905184244 33 352 1.6 22.5 0.00 0.00 0.00 67 1011.2
20260905183344 32 192 1.6 22.5 0.00 0.00 0.00 67 1011.2
20260905183244 32 222 1.6 22.5 0.00 0.00 0.00 66 1011.3
20260905182343 32 329 3.2 22.5 0.00 0.00 0.00 67 1011.6
20260905182244 32 342 1.6 22.5 0.00 0.00 0.00 68 1011.6
20260905181344 32 176 1.6 22.5 0.00 0.00 0.00 68 1011.6
20260905181245 32 29 0.0 22.5 0.00 0.00 0.00 69 1011.7
20260905180343 32 206 1.6 22.5 0.00 0.00 0.00 70 1011.7
20260905180243 32 217 1.6 22.5 0.00 0.00 0.00 69 1011.8
20260905175344 32 312 1.6 22.5 0.00 0.00 0.00 68 1011.9
20260905175245 32 325 3.2 22.5 0.00 0.00 0.00 67 1012.0
20260905174343 32 331 1.6 22.5 0.00 0.00 0.00 67 1012.1
20260905173345 31 236 1.6 22.5 0.00 0.00 0.00 69 1012.2
20260905173243 31 245 1.6 22.5 0.00 0.00 0.00 68 1012.2
20260905172343 31 274 1.6 22.5 0.00 0.00 0.00 69 1012.3
20260905172244 31 320 0.0 22.5 0.00 0.00 0.00 68 1012.3
20260905171345 31 253 0.0 22.5 0.00 0.00 0.00 68 1012.5
20260905171244 31 231 1.6 22.5 0.00 0.00 0.00 69 1012.6
20260905170345 31 136 4.8 22.5 0.00 0.00 0.00 67 1012.5
20260905165344 31 199 1.6 22.5 0.00 0.00 0.00 69 1012.7
20260905165243 31 218 1.6 22.5 0.00 0.00 0.00 68 1012.7
20260905164343 30 205 1.6 22.5 0.00 0.00 0.00 68 1012.7
20260905164243 30 180 3.2 22.5 0.00 0.00 0.00 67 1012.8
20260905163345 30 187 1.6 22.5 0.00 0.00 0.00 68 1012.7
20260905163245 30 173 1.6 22.5 0.00 0.00 0.00 68 1012.7
20260905162344 30 165 1.6 22.5 0.00 0.00 0.00 70 1012.7
20260905161344 30 114 0.0 22.5 0.00 0.00 0.00 71 1012.7
20260905161244 30 150 1.6 22.5 0.00 0.00 0.00 70 1012.7
20260905160345 29 200 1.6 22.5 0.00 0.00 0.00 72 1012.7
20260905155346 29 176 1.6 22.5 0.00 0.00 0.00 72 1012.7
20260905155245 29 175 1.6 22.5 0.00 0.00 0.00 73 1012.8
20260905154345 28 183 3.2 22.5 0.00 0.00 0.00 73 1012.7
20260905154244 28 205 1.6 22.5 0.00 0.00 0.00 73 1012.8
20260905153344 28 182 3.2 22.5 0.00 0.00 0.00 74 1012.8
20260905153244 28 174 3.2 22.5 0.00 0.00 0.00 73 1012.8
20260905152344 27 215 1.6 22.5 0.00 0.00 0.00 75 1012.8
20260905152244 27 225 1.6 22.5 0.00 0.00 0.00 76 1012.8
20260905151343 27 173 3.2 22.5 0.00 0.00 0.00 77 1012.7
20260905150344 26 221 4.8 22.5 0.00 0.00 0.00 77 1012.6
20260905150244 26 197 4.8 22.5 0.00 0.00 0.00 77 1012.6
20260905145343 26 167 3.2 20.9 0.00 0.00 0.00 79 1012.8
20260905145243 26 177 3.2 20.9 0.00 0.00 0.00 79 1012.9
20260905144345 26 168 1.6 20.9 0.00 0.00 0.00 81 1013.0
20260905143345 26 174 3.2 20.9 0.00 0.00 0.00 82 1012.9
20260905142344 26 168 1.6 20.9 0.00 0.00 0.00 82 1012.8
20260905142243 26 173 1.6 20.9 0.00 0.00 0.00 82 1012.8
20260905141344 26 175 3.2 20.9 0.00 0.00 0.00 83 1012.6
20260905140343 25 192 1.6 20.9 0.00 0.00 0.00 81 1012.7
20260905140244 25 196 3.2 20.9 0.00 0.00 0.00 80 1012.6
20260905135346 25 204 1.6 20.9 0.00 0.00 0.00 81 1012.5
20260905135244 25 184 3.2 20.9 0.00 0.00 0.00 81 1012.5
20260905134344 25 170 8.0 20.9 0.00 0.00 0.00 81 1012.4
20260905134244 25 193 4.8 20.9 0.00 0.00 0.00 82 1012.4
20260905133344 25 183 8.0 20.9 0.00 0.00 0.00 83 1012.4
20260905133243 25 182 8.0 20.9 0.00 0.00 0.00 84 1012.5
20260905132345 25 154 4.8 20.9 0.00 0.00 0.00 83 1012.7
20260905132244 25 157 3.2 20.9 0.00 0.00 0.00 83 1012.7
20260905131344 25 143 3.2 20.9 0.00 0.00 0.00 81 1012.7
20260905131244 25 175 4.8 20.9 0.00 0.00 0.00 81 1012.7
20260905130343 25 170 1.6 20.9 0.00 0.00 0.00 82 1012.7
20260905130244 25 183 3.2 20.9 0.00 0.00 0.00 82 1012.7
20260905125343 25 177 3.2 20.9 0.00 0.00 0.00 83 1012.7
20260905124344 25 186 3.2 20.9 0.00 0.00 0.00 87 1012.7
20260905124244 25 185 8.0 20.9 0.00 0.00 0.00 87 1012.6
20260905123344 25 161 8.0 20.9 0.00 0.00 0.00 89 1012.6
20260905122343 25 155 3.2 12.9 0.00 0.00 0.00 91 1012.5
20260905121344 24 102 1.6 11.3 0.00 0.00 0.00 94 1012.3
20260905120344 24 103 3.2 11.3 0.00 0.00 0.00 94 1012.1
20260905120245 24 112 1.6 11.3 0.00 0.00 0.00 94 1012.1
20260905115343 24 241 1.6 3.2 0.00 0.00 0.00 94 1012.0
20260905114343 23 241 1.6 1.6 0.00 0.00 0.00 94 1011.9
20260905113344 24 241 0.0 1.6 0.00 0.00 0.00 94 1011.9
20260905113243 24 241 0.0 1.6 0.00 0.00 0.00 94 1011.9
20260905112343 24 241 0.0 1.6 0.00 0.00 0.00 94 1011.7
20260905112244 24 241 0.0 1.6 0.00 0.00 0.00 94 1011.7
20260905111343 24 241 0.0 1.6 0.00 0.00 0.00 94 1011.6
20260905111244 24 241 0.0 1.6 0.00 0.00 0.00 94 1011.5
20260905110344 24 241 0.0 1.6 0.00 0.00 0.00 94 1011.4
20260905110243 24 241 0.0 1.6 0.00 0.00 0.00 94 1011.4
20260905105343 24 241 0.0 1.6 0.00 0.00 0.00 94 1011.3
20260905104343 24 241 0.0 1.6 0.00 0.00 0.00 94 1011.4
20260905104243 24 241 0.0 1.6 0.00 0.00 0.00 94 1011.4
20260905103343 24 241 0.0 1.6 0.00 0.00 0.00 94 1011.4
20260905102343 24 241 0.0 1.6 0.00 0.00 0.00 94 1011.3
20260905102244 24 241 0.0 1.6 0.00 0.00 0.00 94 1011.4
20260905101343 24 241 0.0 1.6 0.00 0.00 0.00 94 1011.3
20260905101244 24 241 0.0 1.6 0.00 0.00 0.00 94 1011.3
20260905100344 24 241 0.0 1.6 0.00 0.00 0.00 93 1011.5
20260905095343 24 241 0.0 1.6 0.00 0.00 0.00 93 1011.6
20260905094343 24 241 0.0 1.6 0.00 0.00 0.00 93 1011.6
20260905093344 24 241 0.0 1.6 0.00 0.00 0.00 92 1011.7
20260905092344 24 241 0.0 1.6 0.00 0.00 0.00 92 1011.6
20260905091343 25 241 0.0 1.6 0.00 0.00 0.00 92 1011.5
20260905090344 25 241 0.0 1.6 0.00 0.00 0.00 91 1011.5
20260905090244 25 241 0.0 1.6 0.00 0.00 0.00 91 1011.5
20260905085344 25 241 0.0 1.6 0.00 0.00 0.00 91 1011.5
20260905084343 25 241 0.0 1.6 0.00 0.00 0.00 91 1011.6
20260905083343 25 241 0.0 1.6 0.00 0.00 0.00 91 1011.5
20260905082344 25 241 0.0 1.6 0.00 0.00 0.00 91 1011.5
20260905082243 25 241 0.0 1.6 0.00 0.00 0.00 91 1011.4
20260905081344 25 241 0.0 1.6 0.00 0.00 0.00 91 1011.3
20260905080344 25 241 0.0 1.6 0.00 0.00 0.00 90 1011.2
20260905075343 25 241 0.0 1.6 0.00 0.00 0.00 90 1011.1
20260905074343 25 241 0.0 1.6 0.00 0.00 0.00 90 1011.0
20260905073344 25 241 0.0 1.6 0.00 0.00 0.00 90 1010.9
20260905072344 25 241 0.0 1.6 0.00 0.00 0.00 91 1010.8
20260905071343 25 241 0.0 1.6 0.00 0.00 0.00 91 1010.9
20260905070344 25 241 0.0 1.6 0.00 0.00 0.00 92 1010.8
20260905065344 25 241 0.0 1.6 0.00 0.00 0.00 92 1010.9
20260905064344 25 241 0.0 1.6 0.00 0.00 0.00 91 1011.0
20260905064244 25 241 0.0 1.6 0.00 0.00 0.00 92 1011.1
20260905063343 25 241 0.0 1.6 0.00 0.00 0.00 91 1011.1
20260905062343 25 241 0.0 1.6 0.00 0.00 0.00 91 1011.4
20260905061343 25 241 0.0 1.6 0.00 0.00 0.00 91 1011.5
20260905061244 25 241 0.0 1.6 0.00 0.00 0.00 91 1011.5
20260905060343 25 241 0.0 1.6 0.00 0.00 0.00 91 1011.7
20260905055343 25 241 0.0 1.6 0.00 0.00 0.00 91 1011.8
20260905055244 25 241 0.0 1.6 0.00 0.00 0.00 91 1011.8
20260905054344 25 241 0.0 1.6 0.00 0.00 0.00 91 1011.8
20260905053343 25 241 0.0 1.6 0.00 0.00 0.00 90 1011.8
20260905052343 25 241 0.0 1.6 0.00 0.00 0.00 90 1011.9
20260905051344 25 241 0.0 1.6 0.00 0.00 0.00 89 1012.1
20260905051243 25 241 0.0 1.6 0.00 0.00 0.00 89 1012.0
20260905050342 26 241 0.0 1.6 0.00 0.00 0.00 89 1012.2
20260905045343 26 241 0.0 1.6 0.00 0.00 0.00 89 1012.1
20260905044344 26 241 0.0 1.6 0.00 0.00 0.00 89 1012.1
20260905043343 26 241 0.0 1.6 0.00 0.00 0.00 88 1012.1
20260905042344 26 241 0.0 0.0 0.00 0.00 0.00 88 1012.1
20260905041343 26 241 0.0 0.0 0.00 0.00 0.00 87 1012.1
20260905040342 26 241 0.0 0.0 0.00 0.00 0.00 87 1012.2
20260905040243 26 241 0.0 0.0 0.00 0.00 0.00 86 1012.3
20260905035344 26 241 0.0 14.5 0.00 0.00 0.00 86 1012.3
20260905034344 27 241 0.0 14.5 0.00 0.00 0.00 85 1012.3
20260905033344 27 241 0.0 14.5 0.00 0.00 0.00 85 1012.2
20260905032343 27 241 0.0 14.5 0.00 0.00 0.00 84 1012.2
20260905031342 27 241 0.0 14.5 0.00 0.00 0.00 83 1012.3
20260905030342 27 241 0.0 14.5 0.00 0.00 0.00 83 1012.2
20260905025344 27 241 0.0 14.5 0.00 0.00 0.00 82 1012.2
20260905024343 28 241 0.0 14.5 0.00 0.00 0.00 82 1012.2
20260905024244 28 241 0.0 14.5 0.00 0.00 0.00 82 1012.2
20260905023342 28 241 0.0 14.5 0.00 0.00 0.00 81 1012.1
20260905022344 28 241 0.0 14.5 0.00 0.00 0.00 80 1012.0
20260905021344 28 241 0.0 14.5 0.00 0.00 0.00 79 1011.9
20260905020343 29 241 0.0 14.5 0.00 0.00 0.00 78 1011.9
20260905015342 29 241 0.0 14.5 0.00 0.00 0.00 76 1011.9
20260905015243 29 241 0.0 14.5 0.00 0.00 0.00 76 1011.8
20260905014343 30 241 0.0 14.5 0.00 0.00 0.00 76 1011.7
20260905013344 30 241 0.0 14.5 0.00 0.00 0.00 74 1011.6
20260905012345 30 241 0.0 14.5 0.00 0.00 0.00 73 1011.7
20260905011344 30 241 0.0 14.5 0.00 0.00 0.00 73 1011.6
20260905010345 30 241 0.0 14.5 0.00 0.00 0.00 73 1011.5
20260905010245 30 241 0.0 14.5 0.00 0.00 0.00 73 1011.5
20260905005345 30 241 0.0 14.5 0.00 0.00 0.00 73 1011.5
20260905004344 31 241 0.0 14.5 0.00 0.00 0.00 72 1011.5
20260905003346 31 241 0.0 14.5 0.00 0.00 0.00 71 1011.5
20260905002345 31 241 0.0 14.5 0.00 0.00 0.00 70 1011.5
20260905001344 32 241 0.0 14.5 0.00 0.00 0.00 68 1011.6
20260905001247 32 241 0.0 14.5 0.00 0.00 0.00 68 1011.6
20260905000344 32 241 0.0 14.5 0.00 0.00 0.00 67 1011.6
20260905000245 32 241 0.0 14.5 0.00 0.00 0.00 67 1011.6
20260904235345 32 241 0.0 14.5 0.00 0.00 0.00 66 1011.5
20260904234344 33 241 0.0 14.5 0.00 0.00 0.00 64 1011.6
20260904233344 33 241 0.0 14.5 0.00 0.00 0.00 63 1011.5
20260904232343 33 241 0.0 14.5 0.00 0.00 0.00 62 1011.4
20260904231344 33 178 0.0 14.5 0.00 0.00 0.00 61 1011.2
20260904231245 33 178 0.0 14.5 0.00 0.00 0.00 60 1011.2
20260904230344 33 270 0.0 14.5 0.00 0.00 0.00 59 1011.2
20260904225344 34 321 1.6 14.5 0.00 0.00 0.00 60 1011.2
20260904225245 34 321 1.6 14.5 0.00 0.00 0.00 60 1011.2